Zurück zum Katalog

SJ-21 AKM

AktivGEO
NORAD 49382·ROCKET BODY·🇨🇳 China

Gestartet Oct 24, 2021 von Xichang Satellite Launch Center

Loading…

TLE

AktuellSource: Space-Track

Epoche: Sep 14, 2026, 17:08 UTC

1 49382U 21094C   26257.71443399 -.00000243  00000-0  00000+0 0  9993
2 49382  11.4502  38.9690 0003585 175.2532  20.8323  0.99219936 18377

Verfolge SJ-21 AKM in Echtzeit mit AllMySat

Download on the App Store